Location: Banios
(43.0451°N, 0.2335°E)
Time: 12:56:27
(UTC+00:00)

Cosmos 1400 Rocket - Pass Details

Date: 25 January 2021
Orbit: 520 x 568 km, 81.2° (Epoch: 25 February)

Event Time Altitude Azimuth Distance (km) Brightness Sun altitude
Rises 04:59:21 0° 175° (S) 2,733 6.5 -25.8°
Reaches altitude 10° 05:01:33 10° 169° (S) 1,848 5.6 -25.4°
Maximum altitude 05:05:29 48° 95° (E) 748 3.8 -24.7°
Drops below altitude 10° 05:09:28 10° 21° (NNE) 1,876 5.7 -23.9°
Sets 05:11:43 0° 16° (NNE) 2,779 6.6 -23.5°
